clima

HORA PREDICCIÓN TEMPERATURA VIENTO HUMEDAD
2021-06-23 00:00:00 Mayormente nublado 17 3.27 0.82
2021-06-23 01:00:00 Nublado 16 3.51 0.82
2021-06-23 02:00:00 Nublado 16 3.24 0.83
2021-06-23 03:00:00 Nublado 16 3.65 0.84
2021-06-23 04:00:00 Nublado 16 3 0.84
2021-06-23 05:00:00 Nublado 15 2.98 0.85
2021-06-23 06:00:00 Nublado 15 3.4 0.85
2021-06-23 07:00:00 Nublado 15 3.5 0.84
2021-06-23 08:00:00 Nublado 15 3.61 0.82
2021-06-23 09:00:00 Nublado 15 3.22 0.82
2021-06-23 10:00:00 Nublado 16 4.78 0.81
2021-06-23 11:00:00 Nublado 17 5.01 0.8
2021-06-23 12:00:00 Nublado 17 5.92 0.77
2021-06-23 13:00:00 Mayormente nublado 18 6.45 0.75
2021-06-23 14:00:00 Mayormente nublado 18 5.71 0.74
2021-06-23 15:00:00 Nublado 19 6.73 0.75
2021-06-23 16:00:00 Nublado 18 7.31 0.77
2021-06-23 17:00:00 Mayormente nublado 18 6.79 0.79
2021-06-23 18:00:00 Mayormente nublado 17 5.8 0.81
2021-06-23 19:00:00 Mayormente nublado 17 4.59 0.81
2021-06-23 20:00:00 Nublado 17 4.14 0.8
2021-06-23 21:00:00 Nublado 17 3.06 0.79
2021-06-23 22:00:00 Nublado 17 2.79 0.78
2021-06-23 23:00:00 Nublado 17 2.48 0.79

Mesón de informaciones

(56 65) 229 4161

Horario

24 horas del día.

Edificio Terminal de pasajeros,

Aeropuerto El Tepual Puerto Montt

Región de los Lagos, Chile.